| time (UTC) | temp C | wind direction | speed KPH | gust KPH | rain 1hr cm | rain 24hr cm | rain mn cm | humidity % | barometer mb |
| 20260510112856 | 13 | 350 | 12.9 | 29.0 | 0.00 | 0.00 | 0.00 | 75 | 1013.8 |
| 20260510111856 | 13 | 334 | 12.9 | 27.4 | 0.00 | 0.00 | 0.00 | 76 | 1013.8 |
| 20260510110851 | 13 | 355 | 11.3 | 25.7 | 0.00 | 0.00 | 0.00 | 76 | 1013.8 |
| 20260510105851 | 13 | 334 | 12.9 | 29.0 | 0.00 | 0.00 | 0.00 | 75 | 1014.0 |
| 20260510105329 | 13 | 331 | 12.9 | 27.4 | 0.00 | 0.00 | 0.00 | 76 | 1014.0 |
| 20260510103856 | 13 | 24 | 12.9 | 30.6 | 0.00 | 0.00 | 0.00 | 76 | 1014.1 |
| 20260510103806 | 13 | 338 | 11.3 | 22.5 | 0.00 | 0.00 | 0.00 | 77 | 1014.2 |
| 20260510101851 | 13 | 42 | 14.5 | 33.8 | 0.00 | 0.00 | 0.00 | 78 | 1014.1 |
| 20260510100851 | 13 | 349 | 12.9 | 24.1 | 0.00 | 0.00 | 0.00 | 78 | 1014.1 |
| 20260510095855 | 13 | 38 | 14.5 | 27.4 | 0.00 | 0.00 | 0.00 | 79 | 1014.2 |
| 20260510094850 | 13 | 5 | 12.9 | 30.6 | 0.00 | 0.00 | 0.00 | 78 | 1014.4 |
| 20260510094339 | 13 | 346 | 12.9 | 24.1 | 0.00 | 0.00 | 0.00 | 79 | 1014.4 |
| 20260510092850 | 13 | 0 | 14.5 | 29.0 | 0.00 | 0.00 | 0.00 | 78 | 1014.4 |
| 20260510091851 | 14 | 308 | 11.3 | 24.1 | 0.00 | 0.00 | 0.00 | 77 | 1014.7 |
| 20260510090851 | 14 | 38 | 11.3 | 20.9 | 0.00 | 0.00 | 0.00 | 78 | 1014.7 |
| 20260510085851 | 13 | 317 | 12.9 | 27.4 | 0.00 | 0.00 | 0.00 | 78 | 1014.7 |
| 20260510084851 | 13 | 342 | 14.5 | 27.4 | 0.00 | 0.00 | 0.00 | 80 | 1014.7 |
| 20260510083855 | 13 | 355 | 14.5 | 30.6 | 0.00 | 0.00 | 0.00 | 79 | 1014.7 |
| 20260510083337 | 13 | 316 | 14.5 | 25.7 | 0.00 | 0.00 | 0.00 | 78 | 1014.8 |
| 20260510081850 | 14 | 348 | 12.9 | 27.4 | 0.00 | 0.00 | 0.00 | 77 | 1014.8 |
| 20260510080851 | 14 | 337 | 11.3 | 22.5 | 0.00 | 0.00 | 0.00 | 73 | 1014.8 |
| 20260510075851 | 14 | 59 | 9.7 | 22.5 | 0.00 | 0.00 | 0.00 | 71 | 1014.8 |
| 20260510074851 | 14 | 28 | 9.7 | 22.5 | 0.00 | 0.00 | 0.00 | 72 | 1014.9 |
| 20260510073850 | 14 | 349 | 9.7 | 19.3 | 0.00 | 0.00 | 0.00 | 72 | 1014.8 |
| 20260510072850 | 13 | 338 | 9.7 | 24.1 | 0.00 | 0.00 | 0.00 | 75 | 1014.9 |
| 20260510071850 | 13 | 64 | 11.3 | 20.9 | 0.00 | 0.00 | 0.00 | 77 | 1014.9 |
| 20260510071822 | 14 | 36 | 9.7 | 22.5 | 0.00 | 0.00 | 0.00 | 76 | 1015.0 |
| 20260510065850 | 14 | 342 | 9.7 | 22.5 | 0.00 | 0.00 | 0.00 | 66 | 1014.9 |
| 20260510064851 | 13 | 341 | 9.7 | 20.9 | 0.00 | 0.00 | 0.00 | 66 | 1014.9 |
| 20260510063851 | 13 | 314 | 9.7 | 24.1 | 0.00 | 0.00 | 0.00 | 67 | 1014.8 |
| 20260510063340 | 13 | 343 | 8.0 | 19.3 | 0.00 | 0.00 | 0.00 | 67 | 1014.8 |
| 20260510061851 | 13 | 80 | 9.7 | 19.3 | 0.00 | 0.00 | 0.00 | 66 | 1014.8 |
| 20260510060856 | 13 | 0 | 9.7 | 22.5 | 0.00 | 0.00 | 0.00 | 66 | 1014.8 |
| 20260510055851 | 13 | 5 | 9.7 | 27.4 | 0.00 | 0.00 | 0.00 | 68 | 1014.8 |
| 20260510054851 | 13 | 325 | 8.0 | 19.3 | 0.00 | 0.00 | 0.00 | 69 | 1014.8 |
| 20260510053851 | 13 | 338 | 8.0 | 20.9 | 0.00 | 0.00 | 0.00 | 70 | 1014.8 |
| 20260510052848 | 13 | 332 | 8.0 | 20.9 | 0.00 | 0.00 | 0.00 | 71 | 1014.8 |
| 20260510051848 | 12 | 34 | 8.0 | 22.5 | 0.00 | 0.00 | 0.00 | 73 | 1014.8 |
| 20260510050846 | 12 | 304 | 8.0 | 20.9 | 0.00 | 0.00 | 0.00 | 73 | 1014.7 |
| 20260510045846 | 12 | 312 | 9.7 | 20.9 | 0.00 | 0.00 | 0.00 | 74 | 1014.6 |
| 20260510044846 | 12 | 346 | 8.0 | 19.3 | 0.00 | 0.00 | 0.00 | 74 | 1014.6 |
| 20260510043846 | 12 | 23 | 9.7 | 24.1 | 0.00 | 0.00 | 0.00 | 74 | 1014.6 |
| 20260510042846 | 12 | 17 | 9.7 | 22.5 | 0.00 | 0.00 | 0.00 | 74 | 1014.6 |
| 20260510041846 | 12 | 67 | 9.7 | 19.3 | 0.00 | 0.00 | 0.00 | 76 | 1014.8 |
| 20260510040845 | 12 | 15 | 8.0 | 20.9 | 0.00 | 0.00 | 0.00 | 78 | 1014.9 |
| 20260510035850 | 12 | 35 | 8.0 | 22.5 | 0.00 | 0.00 | 0.00 | 80 | 1014.8 |
| 20260510034846 | 12 | 5 | 9.7 | 19.3 | 0.00 | 0.00 | 0.00 | 80 | 1014.7 |
| 20260510033846 | 12 | 327 | 8.0 | 17.7 | 0.00 | 0.00 | 0.00 | 81 | 1014.8 |
| 20260510033323 | 12 | 29 | 8.0 | 19.3 | 0.00 | 0.00 | 0.00 | 81 | 1014.8 |
| 20260510031851 | 12 | 0 | 6.4 | 16.1 | 0.00 | 0.00 | 0.00 | 80 | 1014.8 |
| 20260510031332 | 12 | 38 | 8.0 | 17.7 | 0.00 | 0.00 | 0.00 | 81 | 1014.7 |
| 20260510025846 | 12 | 343 | 8.0 | 19.3 | 0.00 | 0.00 | 0.00 | 82 | 1014.7 |
| 20260510024844 | 12 | 325 | 8.0 | 17.7 | 0.00 | 0.00 | 0.00 | 81 | 1014.8 |
| 20260510023843 | 12 | 332 | 9.7 | 20.9 | 0.00 | 0.00 | 0.00 | 81 | 1014.8 |
| 20260510023320 | 12 | 348 | 8.0 | 19.3 | 0.00 | 0.00 | 0.00 | 81 | 1014.8 |
| 20260510021844 | 12 | 323 | 9.7 | 19.3 | 0.00 | 0.00 | 0.00 | 81 | 1014.9 |
| 20260510020843 | 12 | 5 | 8.0 | 17.7 | 0.00 | 0.00 | 0.00 | 82 | 1015.0 |
| 20260510015844 | 12 | 348 | 8.0 | 16.1 | 0.00 | 0.00 | 0.00 | 82 | 1015.0 |
| 20260510015318 | 13 | 335 | 8.0 | 17.7 | 0.00 | 0.00 | 0.00 | 83 | 1015.0 |
| 20260510014317 | 13 | 53 | 8.0 | 19.3 | 0.00 | 0.00 | 0.00 | 82 | 1015.1 |
| 20260510012842 | 13 | 24 | 8.0 | 17.7 | 0.00 | 0.00 | 0.00 | 82 | 1015.2 |
| 20260510012315 | 13 | 339 | 8.0 | 19.3 | 0.00 | 0.00 | 0.00 | 82 | 1015.1 |
| 20260510010840 | 13 | 306 | 8.0 | 16.1 | 0.00 | 0.00 | 0.00 | 83 | 1015.0 |
| 20260510005845 | 13 | 47 | 6.4 | 14.5 | 0.00 | 0.00 | 0.00 | 83 | 1015.0 |
| 20260510004839 | 13 | 355 | 6.4 | 20.9 | 0.00 | 0.00 | 0.00 | 83 | 1015.0 |
| 20260510003840 | 13 | 5 | 6.4 | 17.7 | 0.00 | 0.00 | 0.00 | 83 | 1015.3 |
| 20260510002840 | 13 | 330 | 8.0 | 16.1 | 0.00 | 0.00 | 0.00 | 83 | 1015.2 |
| 20260510002322 | 13 | 346 | 8.0 | 14.5 | 0.00 | 0.00 | 0.00 | 83 | 1015.4 |
| 20260510000840 | 13 | 46 | 6.4 | 19.3 | 0.00 | 0.00 | 0.00 | 84 | 1015.7 |
| 20260509235839 | 13 | 44 | 8.0 | 17.7 | 0.00 | 0.00 | 0.00 | 84 | 1015.7 |
| 20260509234840 | 13 | 57 | 6.4 | 19.3 | 0.00 | 0.00 | 0.00 | 84 | 1015.7 |
| 20260509233839 | 13 | 333 | 4.8 | 16.1 | 0.00 | 0.00 | 0.00 | 83 | 1015.8 |
| 20260509232839 | 13 | 90 | 8.0 | 16.1 | 0.00 | 0.00 | 0.00 | 83 | 1015.8 |
| 20260509231839 | 13 | 348 | 8.0 | 16.1 | 0.00 | 0.00 | 0.00 | 82 | 1015.8 |
| 20260509230844 | 13 | 313 | 8.0 | 17.7 | 0.00 | 0.00 | 0.00 | 81 | 1015.7 |
| 20260509225838 | 13 | 59 | 9.7 | 20.9 | 0.00 | 0.00 | 0.00 | 81 | 1015.7 |
| 20260509224843 | 13 | 338 | 6.4 | 16.1 | 0.00 | 0.00 | 0.00 | 80 | 1015.7 |
| 20260509223837 | 13 | 319 | 6.4 | 14.5 | 0.00 | 0.00 | 0.00 | 80 | 1015.5 |
| 20260509222843 | 13 | 28 | 6.4 | 16.1 | 0.00 | 0.00 | 0.00 | 79 | 1015.7 |
| 20260509221837 | 13 | 38 | 6.4 | 12.9 | 0.00 | 0.00 | 0.00 | 79 | 1015.7 |
| 20260509220842 | 13 | 0 | 6.4 | 20.9 | 0.00 | 0.00 | 0.00 | 79 | 1015.7 |
| 20260509215842 | 13 | 355 | 6.4 | 19.3 | 0.00 | 0.00 | 0.00 | 79 | 1015.7 |
| 20260509214837 | 13 | 14 | 6.4 | 16.1 | 0.00 | 0.00 | 0.00 | 79 | 1015.7 |
| 20260509213836 | 13 | 324 | 6.4 | 19.3 | 0.00 | 0.00 | 0.00 | 80 | 1015.7 |
| 20260509212842 | 13 | 17 | 6.4 | 12.9 | 0.00 | 0.00 | 0.00 | 80 | 1015.8 |
| 20260509211836 | 13 | 46 | 6.4 | 16.1 | 0.00 | 0.00 | 0.00 | 81 | 1015.8 |
| 20260509210836 | 13 | 324 | 8.0 | 17.7 | 0.00 | 0.00 | 0.00 | 81 | 1015.8 |
| 20260509205842 | 13 | 338 | 8.0 | 17.7 | 0.00 | 0.00 | 0.00 | 81 | 1015.7 |
| 20260509205315 | 13 | 30 | 6.4 | 14.5 | 0.00 | 0.00 | 0.00 | 81 | 1015.7 |
| 20260509203834 | 13 | 318 | 8.0 | 16.1 | 0.00 | 0.00 | 0.00 | 82 | 1015.7 |
| 20260509202839 | 13 | 16 | 6.4 | 14.5 | 0.00 | 0.00 | 0.00 | 82 | 1015.6 |
| 20260509201834 | 13 | 336 | 6.4 | 14.5 | 0.00 | 0.00 | 0.00 | 82 | 1015.6 |
| 20260509200835 | 13 | 0 | 6.4 | 12.9 | 0.00 | 0.00 | 0.00 | 82 | 1015.6 |
| 20260509195834 | 13 | 341 | 6.4 | 16.1 | 0.00 | 0.00 | 0.00 | 81 | 1015.7 |
| 20260509194834 | 13 | 36 | 6.4 | 16.1 | 0.00 | 0.00 | 0.00 | 81 | 1015.5 |
| 20260509194321 | 13 | 38 | 8.0 | 16.1 | 0.00 | 0.00 | 0.00 | 81 | 1015.4 |
| 20260509192834 | 13 | 336 | 8.0 | 16.1 | 0.00 | 0.00 | 0.00 | 81 | 1015.5 |
| 20260509191832 | 13 | 318 | 6.4 | 16.1 | 0.00 | 0.00 | 0.00 | 81 | 1015.6 |
| 20260509190830 | 14 | 339 | 6.4 | 16.1 | 0.00 | 0.00 | 0.00 | 80 | 1015.4 |
| 20260509185830 | 14 | 49 | 6.4 | 12.9 | 0.00 | 0.00 | 0.00 | 79 | 1015.4 |
| 20260509184830 | 14 | 355 | 6.4 | 17.7 | 0.00 | 0.00 | 0.00 | 79 | 1015.3 |
| 20260509183830 | 15 | 336 | 6.4 | 16.1 | 0.00 | 0.00 | 0.00 | 78 | 1015.4 |
| 20260509182831 | 15 | 38 | 6.4 | 14.5 | 0.00 | 0.00 | 0.00 | 77 | 1015.3 |
| 20260509181826 | 15 | 335 | 6.4 | 16.1 | 0.00 | 0.00 | 0.00 | 76 | 1015.3 |
| 20260509180826 | 15 | 331 | 8.0 | 14.5 | 0.00 | 0.00 | 0.00 | 75 | 1015.1 |
| 20260509175826 | 15 | 19 | 8.0 | 14.5 | 0.00 | 0.00 | 0.00 | 75 | 1015.1 |
| 20260509174836 | 15 | 315 | 8.0 | 20.9 | 0.00 | 0.00 | 0.00 | 75 | 1015.2 |
| 20260509173831 | 15 | 328 | 8.0 | 14.5 | 0.00 | 0.00 | 0.00 | 75 | 1015.2 |
| 20260509172824 | 15 | 333 | 9.7 | 22.5 | 0.00 | 0.00 | 0.00 | 75 | 1015.2 |
| 20260509171824 | 15 | 297 | 11.3 | 19.3 | 0.00 | 0.00 | 0.00 | 75 | 1015.1 |
| 20260509170822 | 15 | 344 | 11.3 | 20.9 | 0.00 | 0.00 | 0.00 | 75 | 1015.2 |
| 20260509165822 | 16 | 332 | 11.3 | 19.3 | 0.00 | 0.00 | 0.00 | 74 | 1015.3 |
| 20260509164822 | 16 | 331 | 8.0 | 16.1 | 0.00 | 0.00 | 0.00 | 73 | 1015.5 |
| 20260509163822 | 16 | 326 | 11.3 | 20.9 | 0.00 | 0.00 | 0.00 | 74 | 1015.5 |
| 20260509163310 | 16 | 321 | 11.3 | 22.5 | 0.00 | 0.00 | 0.00 | 73 | 1015.6 |
| 20260509161822 | 16 | 330 | 11.3 | 19.3 | 0.00 | 0.00 | 0.00 | 73 | 1015.5 |
| 20260509160822 | 16 | 77 | 11.3 | 22.5 | 0.00 | 0.00 | 0.00 | 73 | 1015.5 |
| 20260509155821 | 16 | 5 | 11.3 | 19.3 | 0.00 | 0.00 | 0.00 | 73 | 1015.4 |
| 20260509154822 | 16 | 336 | 11.3 | 17.7 | 0.00 | 0.00 | 0.00 | 73 | 1015.4 |
| 20260509153822 | 16 | 51 | 12.9 | 25.7 | 0.00 | 0.00 | 0.00 | 73 | 1015.4 |
| 20260509152827 | 16 | 328 | 11.3 | 22.5 | 0.00 | 0.00 | 0.00 | 73 | 1015.4 |
| 20260509151822 | 16 | 51 | 11.3 | 19.3 | 0.00 | 0.00 | 0.00 | 73 | 1015.4 |
| 20260509150822 | 16 | 47 | 8.0 | 19.3 | 0.00 | 0.00 | 0.00 | 73 | 1015.5 |
| 20260509150304 | 17 | 22 | 8.0 | 19.3 | 0.00 | 0.00 | 0.00 | 70 | 1015.5 |
| 20260509144822 | 17 | 340 | 8.0 | 20.9 | 0.00 | 0.00 | 0.00 | 69 | 1015.4 |
| 20260509143852 | 17 | 311 | 11.3 | 19.3 | 0.00 | 0.00 | 0.00 | 69 | 1015.6 |
| 20260509141819 | 17 | 0 | 12.9 | 22.5 | 0.00 | 0.00 | 0.00 | 70 | 1015.7 |
| 20260509140820 | 17 | 316 | 12.9 | 20.9 | 0.00 | 0.00 | 0.00 | 70 | 1015.7 |
| 20260509135820 | 17 | 317 | 12.9 | 24.1 | 0.00 | 0.00 | 0.00 | 70 | 1015.7 |
| 20260509134817 | 16 | 338 | 11.3 | 20.9 | 0.00 | 0.00 | 0.00 | 70 | 1015.8 |
| 20260509133818 | 17 | 5 | 11.3 | 22.5 | 0.00 | 0.00 | 0.00 | 71 | 1015.9 |
| 20260509132817 | 17 | 5 | 11.3 | 20.9 | 0.00 | 0.00 | 0.00 | 72 | 1015.9 |
| 20260509132254 | 16 | 341 | 11.3 | 20.9 | 0.00 | 0.00 | 0.00 | 72 | 1016.1 |
| 20260509130818 | 16 | 331 | 11.3 | 19.3 | 0.00 | 0.00 | 0.00 | 73 | 1016.1 |
| 20260509125820 | 17 | 332 | 11.3 | 19.3 | 0.00 | 0.00 | 0.00 | 71 | 1016.1 |
| 20260509124816 | 16 | 79 | 12.9 | 19.3 | 0.00 | 0.00 | 0.00 | 72 | 1016.2 |
| 20260509123815 | 17 | 319 | 11.3 | 17.7 | 0.00 | 0.00 | 0.00 | 72 | 1016.2 |
| 20260509122816 | 16 | 331 | 12.9 | 20.9 | 0.00 | 0.00 | 0.00 | 72 | 1016.4 |
| 20260509121816 | 17 | 355 | 11.3 | 20.9 | 0.00 | 0.00 | 0.00 | 69 | 1016.5 |
| 20260509120816 | 17 | 5 | 11.3 | 19.3 | 0.00 | 0.00 | 0.00 | 67 | 1016.5 |
| 20260509115814 | 17 | 334 | 12.9 | 20.9 | 0.00 | 0.00 | 0.00 | 65 | 1016.6 |
| 20260509114813 | 17 | 16 | 12.9 | 20.9 | 0.00 | 0.00 | 0.00 | 62 | 1016.7 |